Showing default

SGDC, 42692

Orbit data source: Space-Track

SGDC, 42692 is a payload satellite owned by Telebras (BR) in GEO that was launched on Thu, 04 May 2017 UTC via an ARIANE 5ECA launch vehicle from the French Guiana (FRGUI). Payload-class satellites include a variety of spacecraft equipped with specific instruments for various scientific and technological missions. These include communications satellites like Starlink; space stations such as the ISS; scientific satellites like the Hubble; Earth observation satellites from companies like Planet Labs, Umbra, and HawkEye 360; GPS; miniature CubeSats for education and research; and military/defense satellites.

Loading next visibility...
Identifier
42692, 2017-023B
Orbit
GEO
Country
Flag of UnknownUnknown / BRAZ
Related business
Manufacturer
Thales Alenia
Mission
Operational Defense Communications
Bus & Motor
SPACEBUS 4000C4, S400
Mass
5,735 kg wet, ~2,500 kg dry
Launch date (UTC)
2017-05-04 (9 years ago)
Launch vehicle
ARIANE 5ECA
Launch site
French Guiana (FRGUI)
Object type
Payload
Rocket body
Debris
Shape & HBR
Box + 2 Pan, 18.5 m
Radar Cross Section
34.994 m², Large (>1 m²)

Expand to show TLE details & history
Last TLE update: 20 hours ago

TLE from 20 hours ago
0 SGDC
1 42692U 17023B   25308.08677339  .00000000  00000-0  00000+0 0  9996
2 42692   0.0046 348.4785 0003578 251.2702 120.2159  1.00269802 31143
Epoch: 2025-11-04T02:04Z
TLE epoch observation values (Epoch: 2025-11-04T02:04:57.220Z)
Latitude
0.00212°
Longitude
-74.85694°
Altitude
35,794.299 km
Speed
3.074 km/s
True Right ascension
23h 59m 50s
True Declination
0° 00' 08"
Sunlit
Object was in daylight at epoch
Visualization orbit readout
Latitude
Unknown
Longitude
Unknown
Altitude
Unknown
Speed
Unknown
Apparent Right ascension
Unknown
Apparent Declination
Unknown
Sunlit
N/A
Visualization observer readout
Local Sidereal Time
18:25:47
Azimuth
Unknown
Elevation
Unknown
Doppler factor
Unknown
Orbital elements
Apogee altitude
35,803.308 km
Perigee altitude
35,773.134 km
Semi-major axis
42,166.358 km
Eccentricity
0.00036
Inclination
0.0046°
RAAN
348.4785°
Arg. of periapsis
251.2702°
True anomaly
120.25132°
Mean anomaly
120.2159°
Eccentric anomaly
120.23361°
Mean motion
0.25067 °/min
Orbital period
1,436.18 mins
BSTAR
0
Loading maneuver chart data...
Computing Atmospheric mass density...
Loading historical data...
Loading historical data...
Loading historical data...
Loading historical data...
Loading historical data...
Loading historical data...
Loading historical data...
Other satellites on launch #23 in the year 2017 (2017-05-04 UTC)

Documentation

Showing up to 5 results
|